Torna al catalogo

STARLINK-11144

AttivoComunicazioniVLEO
NORAD 59955·PAYLOAD·🇺🇸 United States

Lanciato Jun 5, 2024 da Cape Canaveral Space Force Station

Loading…

Prossimi Passaggi (prossime 24 ore)

TLE

AggiornatoSource: CelesTrak SupGP

Epoca: Sep 15, 2026, 03:07 UTC

1 59955C 24107L   26258.13034722 -.00090517  00000+0 -74560-3 0  2588
2 59955  53.1574  37.1961 0000982  89.6343 228.8675 15.69755386    13

Traccia STARLINK-11144 in tempo reale con AllMySat

Download on the App Store